Theta_e
353 352 353 352 352 350 348 347 349 352 353 353 353 353 353 353 353 354 355 356 357 356 356 355 355 356 356 356 356 356 355 355 356 357 358 355 353 353 354 354 353 352 355 357 358 359 358 357 356 356 357 357 356 356 354 354 353 351 351 352 353 352 351 351 351 350 349 349 349 348 347 347 349 349 349 350 350 349 348 348 349 350 350 352 352
352 352 352 353 352 351 349 347 348 351 352 353 354 353 354 353 354 354 355 356 357 357 357 356 356 357 358 356 356 356 355 354 354 356 357 354 352 351 353 355 355 354 355 355 356 357 358 356 355 355 357 358 357 357 357 356 356 354 352 351 352 352 353 353 352 351 351 351 351 350 349 349 350 350 350 350 349 347 347 346 348 350 351 351 353
354 353 354 354 353 353 352 350 348 349 351 353 353 354 353 354 354 354 355 356 357 357 357 357 356 356 356 356 355 355 355 354 354 355 356 354 353 352 354 355 355 355 354 354 355 356 357 356 354 354 356 358 358 357 357 358 358 356 354 352 352 351 352 352 353 352 352 352 352 351 351 350 350 349 350 350 350 350 350 351 353 356 356 355 355
356 356 356 355 355 354 354 353 351 350 350 351 352 352 353 353 354 355 356 356 356 356 356 357 356 356 355 354 354 354 354 354 354 355 355 355 354 353 354 355 355 355 354 353 355 357 358 357 355 354 354 356 356 357 358 358 357 357 356 355 354 353 353 353 352 353 352 352 351 351 351 351 350 350 350 350 351 352 353 354 355 357 357 357 357
357 358 357 357 356 355 355 355 354 353 352 352 352 352 352 352 353 355 355 355 355 355 355 356 356 355 354 353 353 353 354 354 354 354 354 354 354 354 353 354 354 353 353 353 353 354 356 356 355 354 354 354 353 354 355 356 356 355 355 356 356 355 355 354 353 353 353 353 352 351 350 351 351 351 351 352 352 352 353 353 352 354 355 356 356
357 358 358 358 357 357 356 355 355 355 354 354 354 353 353 353 353 354 354 353 354 354 353 354 354 354 354 353 352 352 352 353 353 353 353 354 353 353 353 353 352 352 352 352 352 352 352 353 354 353 354 353 352 351 352 353 353 354 354 354 354 355 355 355 354 354 353 353 353 352 351 351 351 351 350 351 352 352 353 352 350 352 353 354 354
355 356 357 358 358 358 357 357 357 357 357 356 355 355 354 354 354 354 353 353 354 354 352 352 351 352 353 353 352 351 351 351 352 352 351 351 351 352 352 353 353 351 351 351 351 351 351 350 350 351 352 353 352 351 351 351 352 352 353 352 352 353 354 354 354 353 353 353 353 352 352 351 351 350 349 350 351 352 353 353 351 350 350 353 352
352 355 356 356 356 357 357 356 356 356 357 356 356 356 355 355 355 354 354 355 354 354 353 352 350 350 351 351 351 351 350 351 351 350 349 349 349 350 351 352 352 352 351 350 349 350 350 350 351 350 351 351 351 351 352 352 352 351 349 350 351 351 351 352 352 353 353 353 353 353 353 352 351 350 349 350 351 351 351 353 353 351 350 351 350
351 353 353 352 352 354 354 354 355 355 356 356 356 356 355 355 355 355 355 355 355 355 353 352 351 350 350 350 350 351 351 350 350 350 349 349 349 349 350 350 350 350 350 350 349 349 348 348 349 349 350 350 350 350 350 351 352 350 347 347 349 350 350 350 351 352 352 352 352 352 352 352 351 351 351 350 350 349 350 352 353 352 352 353 350
351 351 351 349 349 349 350 351 351 352 353 354 353 354 354 354 353 354 355 354 353 352 352 351 351 351 350 350 350 350 350 350 349 349 349 348 348 349 349 349 349 349 349 349 348 347 347 347 346 346 348 348 348 348 348 347 347 347 345 346 347 348 350 350 350 350 351 352 352 351 351 351 351 351 351 350 349 349 350 352 352 352 353 353 351
351 350 350 349 349 349 349 349 349 350 351 351 351 350 351 352 351 351 352 353 352 352 351 350 350 350 350 350 350 350 350 350 349 348 348 348 348 347 348 348 348 349 348 348 348 347 347 346 346 346 345 346 347 348 348 347 346 346 345 345 346 347 348 350 350 350 351 351 351 351 351 351 350 350 350 350 349 350 349 350 351 352 352 352 352
345 346 346 347 349 351 352 351 352 351 351 351 351 350 349 350 350 349 349 350 352 351 351 351 350 349 350 350 350 350 350 349 349 349 348 348 348 348 347 347 349 348 348 348 347 346 346 346 347 347 346 346 346 347 348 348 347 346 346 345 346 347 347 349 349 348 349 349 350 350 350 350 351 349 349 349 350 350 349 350 351 351 351 352 352
340 341 341 342 344 346 349 350 351 352 351 351 351 351 349 350 350 349 349 349 352 353 353 352 352 351 350 349 349 349 349 349 349 349 348 349 348 348 347 347 348 349 348 348 348 347 347 347 346 346 346 346 347 347 347 347 347 346 347 346 346 346 345 347 347 346 346 347 348 348 347 347 348 347 345 347 350 351 351 351 351 350 351 351 351
337 338 339 338 339 341 342 344 345 346 347 347 348 349 349 349 349 349 350 351 351 352 353 354 354 354 352 350 349 349 348 348 348 348 348 347 347 348 348 349 348 349 349 349 348 348 348 347 347 347 346 346 346 347 347 347 346 346 346 347 346 345 345 345 345 344 343 343 345 345 341 342 344 343 341 345 349 351 351 351 351 352 351 351 351
335 336 338 339 340 340 340 341 343 343 344 345 345 346 346 346 345 346 348 351 351 350 352 354 354 354 354 353 352 350 348 348 348 348 348 347 348 348 348 348 349 349 350 349 349 350 349 348 348 348 347 347 346 347 348 348 348 347 346 346 346 345 344 344 343 342 341 340 341 341 340 341 342 343 342 345 347 347 349 351 352 352 353 353 353
333 333 334 336 337 337 336 336 339 341 341 342 342 343 344 344 343 343 345 347 350 350 351 353 354 354 354 353 353 353 352 351 350 349 350 350 350 350 349 350 349 349 350 350 349 349 349 349 349 348 348 348 347 347 348 349 349 348 347 346 345 345 344 343 342 341 340 340 341 341 343 343 344 345 345 346 345 345 348 352 353 353 353 354 353
331 331 331 331 331 332 332 334 334 335 336 337 338 340 342 344 344 344 343 345 348 350 351 353 353 354 354 354 354 354 353 353 352 352 351 351 351 351 351 351 351 350 349 349 349 349 349 349 349 349 349 349 348 349 348 349 349 348 347 346 346 345 345 345 344 343 342 342 343 343 344 345 345 347 348 348 349 347 349 351 352 351 351 351 350
329 330 331 330 328 327 328 330 331 332 333 333 334 335 338 340 343 345 346 347 347 349 350 353 354 355 355 355 355 355 355 355 355 355 355 354 354 353 353 353 353 353 352 351 350 349 349 349 349 349 349 349 349 349 349 349 349 349 348 347 345 345 345 346 345 345 344 344 343 344 345 346 348 349 349 350 350 351 351 351 351 351 349 348 349
327 328 331 331 329 327 325 325 327 331 331 331 332 333 334 337 341 346 349 348 346 345 347 350 353 353 353 355 355 355 355 355 356 356 356 355 355 354 353 353 353 353 353 353 352 352 351 351 351 350 349 350 350 350 350 350 349 349 349 347 345 345 346 346 346 345 345 345 345 346 348 349 351 351 351 352 351 352 353 353 353 352 349 349 349
327 329 330 330 330 328 326 323 324 327 329 329 331 332 335 339 343 346 346 344 341 340 339 341 341 341 342 344 344 345 347 349 351 354 355 355 355 355 354 353 353 353 353 352 352 353 353 352 352 352 352 352 352 352 351 350 349 348 348 347 345 346 347 347 346 347 347 347 347 349 350 351 352 352 352 352 352 353 353 354 354 354 353 352 351
326 328 329 329 328 328 328 325 323 324 327 328 331 333 338 344 347 346 344 340 336 335 335 335 333 331 331 332 333 334 337 338 340 343 346 349 352 353 354 354 353 353 353 353 353 353 353 354 354 354 353 353 353 352 352 352 351 349 349 347 347 347 348 347 347 347 348 349 349 350 350 351 351 352 353 354 354 354 353 353 354 355 355 354 354
324 325 326 327 327 328 328 326 323 324 326 328 330 332 334 339 342 341 338 334 332 333 333 333 332 331 330 331 331 332 332 332 331 332 334 339 344 347 348 348 348 349 350 351 353 353 354 354 354 353 352 352 352 352 352 352 353 352 352 351 350 350 349 349 349 349 349 349 350 350 351 351 352 353 354 355 356 357 356 355 355 355 355 356 355
322 323 324 324 325 327 328 327 325 325 326 328 330 330 330 331 332 331 331 331 330 331 332 332 332 331 331 331 331 332 332 330 328 329 330 333 336 339 341 342 342 343 344 345 348 351 352 353 352 352 352 352 352 353 353 353 353 353 353 353 353 353 353 353 353 353 352 352 351 350 351 352 352 353 354 357 357 358 357 356 357 357 356 356 356
319 321 322 323 324 325 326 327 326 325 326 327 328 329 328 327 326 325 326 328 330 330 330 331 331 331 331 332 331 332 332 330 328 328 329 331 331 334 336 338 339 340 340 341 342 345 348 350 350 351 352 352 354 354 355 355 353 353 353 352 353 353 354 354 355 355 355 354 353 353 353 353 354 355 356 357 358 357 357 356 356 357 357 357 357
316 318 320 321 322 323 324 326 326 326 326 327 328 328 327 326 324 322 322 324 328 329 329 329 329 329 329 329 329 329 329 327 326 327 330 331 331 332 334 336 337 338 339 340 340 342 343 345 346 348 349 351 352 353 354 355 354 354 353 353 352 353 352 353 354 354 355 356 355 355 356 356 357 357 357 357 357 356 356 355 356 357 357 357 357
317 317 318 319 320 321 322 324 325 326 326 326 327 327 326 324 323 321 320 322 326 329 329 328 328 327 327 325 324 324 322 322 325 328 330 330 330 331 334 335 336 337 338 340 341 341 342 343 343 344 346 347 349 350 351 352 352 353 353 353 353 353 353 352 351 351 353 354 355 355 356 356 356 356 355 355 354 354 355 355 355 356 356 356 356
318 318 318 318 319 320 321 322 323 325 326 326 326 326 325 323 322 321 320 323 326 328 327 326 326 325 324 321 320 320 321 323 327 329 329 328 329 330 332 333 335 337 339 339 338 338 340 342 343 344 344 344 345 346 347 348 349 350 351 351 351 352 352 352 351 350 350 351 351 352 353 353 353 353 352 352 353 353 354 354 354 355 356 355 356
318 318 319 318 318 319 319 320 322 324 325 326 326 325 324 323 322 321 322 325 327 326 325 325 324 322 320 320 320 322 324 326 328 328 328 329 329 329 331 333 336 336 335 334 333 334 335 339 342 344 345 344 345 345 345 346 346 346 347 348 348 349 350 351 352 351 351 351 350 350 351 351 350 350 351 350 351 352 352 353 353 354 354 355 355
318 318 319 318 318 318 318 319 320 322 324 325 325 324 323 323 322 321 322 325 326 325 324 324 323 321 319 320 322 324 325 327 328 328 329 330 331 331 332 333 333 332 331 330 330 330 333 337 341 342 343 343 344 345 345 346 346 346 347 347 348 348 349 351 352 353 353 352 351 350 350 350 349 350 349 350 350 351 351 352 353 353 354 354 354
318 318 319 319 319 319 318 319 320 321 323 325 325 324 323 323 322 321 322 324 325 325 324 324 322 320 319 320 323 324 325 326 327 328 329 330 330 331 331 330 329 328 328 328 329 330 333 337 339 340 341 342 342 343 345 345 346 347 347 348 348 349 350 350 352 352 353 353 352 351 350 350 349 349 349 349 350 350 351 351 352 353 353 354 354
318 319 319 320 321 321 321 321 322 322 323 325 325 325 324 324 323 323 323 324 324 324 324 322 320 319 319 320 323 326 326 325 326 326 327 327 327 328 327 326 326 327 327 328 330 332 334 336 337 337 338 339 340 341 342 343 344 346 347 348 349 349 350 351 350 351 352 352 352 351 351 350 349 349 349 349 350 350 351 351 352 352 353 353 354
317 317 319 320 322 322 322 323 323 323 324 325 325 325 325 324 323 323 324 324 324 324 322 320 318 318 318 320 324 327 327 324 323 324 324 324 324 325 324 324 325 325 326 327 329 330 331 331 332 332 332 332 332 332 332 334 335 337 339 343 345 347 348 350 350 350 351 351 351 351 351 351 350 350 351 350 350 350 350 351 351 352 353 353 354
315 317 318 319 319 320 321 321 321 321 322 323 324 324 323 323 322 322 322 323 322 321 320 319 318 319 319 320 323 326 325 323 322 322 322 322 323 323 323 324 323 323 323 323 323 323 322 323 324 324 324 324 324 323 323 325 326 327 329 332 335 338 340 343 346 348 350 351 351 351 351 351 351 351 351 351 351 351 351 351 352 352 352 352 353
315 316 318 317 316 317 318 319 319 320 320 321 322 322 321 321 320 320 321 321 321 320 319 318 319 319 320 320 322 323 323 322 321 321 321 321 321 320 321 321 322 321 320 319 318 318 318 318 318 318 318 317 317 318 319 320 321 322 324 326 328 329 331 334 337 340 344 346 349 351 352 352 352 352 352 351 351 351 351 352 352 352 352 352 353
314 315 315 314 314 314 315 315 316 317 318 318 319 319 319 320 319 320 320 320 320 320 320 319 319 320 320 320 321 321 321 320 320 320 320 320 319 319 319 319 319 318 318 317 316 316 316 316 315 315 315 314 314 315 315 316 317 318 320 322 323 324 325 327 330 331 334 337 342 346 349 351 352 353 352 352 352 352 352 353 353 353 353 353 353
313 313 312 312 312 312 312 313 314 314 315 316 316 317 317 318 318 318 318 318 319 320 319 319 319 319 319 320 320 320 319 318 319 319 319 319 318 318 318 318 317 317 316 315 315 314 314 314 313 313 313 313 313 313 313 313 314 315 316 318 319 320 321 323 324 326 328 331 334 338 342 346 349 351 352 353 352 352 353 353 353 353 353 353 353
311 311 311 311 311 310 310 311 312 312 312 314 314 315 315 315 315 315 316 316 317 318 318 318 318 318 318 318 318 317 317 317 318 319 319 319 318 318 317 317 316 315 315 314 314 313 313 313 313 312 312 312 312 312 311 311 312 313 314 315 315 316 317 319 320 322 324 327 329 332 335 338 341 345 348 351 352 352 352 353 353 353 353 353 353
310 310 310 310 309 309 309 309 310 309 311 313 314 313 313 313 313 314 314 315 316 316 316 316 316 316 317 316 316 316 316 316 318 319 319 318 318 317 317 316 315 314 314 313 313 312 312 312 312 311 311 311 311 311 310 311 311 312 312 313 313 314 315 316 317 318 320 322 325 327 329 331 334 337 340 344 347 349 350 351 351 351 351 351 351
308 309 308 308 308 308 308 308 308 309 310 312 312 312 311 311 311 312 313 313 314 314 314 315 315 315 315 316 315 315 314 316 318 318 318 318 317 317 316 315 314 313 312 312 312 311 311 311 311 310 309 309 309 309 309 309 310 310 310 311 312 312 313 313 314 316 317 318 320 322 323 325 327 330 333 336 339 342 345 347 348 349 350 350 350
308 307 307 307 307 307 306 307 307 308 308 309 309 309 309 310 310 311 311 312 312 313 313 313 314 314 314 314 314 314 314 316 318 317 317 316 316 316 315 314 313 312 311 311 311 311 310 310 309 309 308 308 308 308 308 308 308 309 309 310 311 311 311 312 312 313 314 315 316 317 319 320 322 324 326 328 331 333 335 337 339 342 345 348 350
307 306 306 306 306 305 305 305 306 306 306 306 306 306 307 309 310 310 311 311 311 311 312 312 312 312 313 313 313 313 313 315 316 316 316 315 315 314 314 313 312 311 311 310 310 310 309 308 308 307 307 307 306 306 306 306 307 307 308 308 309 309 310 310 311 311 312 312 313 314 315 317 318 318 319 321 323 325 327 329 332 334 337 341 345
306 305 305 305 304 304 304 304 304 304 304 304 305 306 308 309 309 309 310 310 310 310 311 311 311 312 312 312 312 312 313 314 315 315 314 314 313 313 312 311 310 310 310 310 310 309 308 307 306 305 305 305 305 305 305 305 306 306 307 307 307 308 309 309 309 309 310 309 309 310 311 312 312 313 314 315 317 319 321 324 326 328 331 334 337
304 304 303 303 303 303 303 302 302 303 304 305 306 307 308 308 308 308 309 309 309 310 310 311 311 311 311 311 311 311 312 313 313 313 312 311 311 311 310 310 309 308 308 308 308 308 307 306 305 305 304 304 304 304 304 305 305 305 305 306 306 306 307 308 308 308 308 307 307 307 308 309 310 310 310 312 314 315 316 318 320 322 325 328 331
303 302 301 301 301 301 301 301 302 303 304 306 306 307 307 307 307 308 308 308 308 309 309 309 310 310 310 311 311 311 311 311 311 310 310 310 309 309 308 308 307 307 306 306 306 305 305 305 304 304 304 303 303 304 304 304 304 305 305 305 305 305 306 305 306 306 306 305 306 305 306 307 308 308 308 309 311 312 314 315 317 319 321 322 326
301 300 300 300 300 301 302 302 304 305 305 306 306 306 306 306 306 306 306 307 308 308 308 309 309 309 309 309 309 308 308 308 308 308 308 308 308 307 307 306 305 305 305 305 304 304 304 303 303 303 303 303 303 303 303 304 304 304 304 304 304 304 304 303 303 303 303 303 304 304 304 305 306 307 306 307 308 309 311 313 315 316 318 319 321
300 300 300 301 301 302 303 303 304 305 305 304 304 305 305 305 305 305 305 306 306 307 307 307 307 307 307 307 306 306 307 306 306 306 306 306 306 305 305 304 304 304 304 303 303 303 302 302 302 302 302 302 302 302 302 303 303 302 302 302 302 302 302 302 301 301 301 301 302 302 301 302 303 305 306 306 306 308 310 311 313 315 316 318 319
299 300 301 302 302 303 303 303 303 303 303 302 302 303 303 303 303 303 304 304 304 305 305 305 305 305 305 305 305 305 305 304 305 304 305 304 304 304 304 303 303 302 302 302 302 302 301 301 301 301 301 301 301 301 301 301 301 301 301 301 300 300 301 300 299 299 299 299 299 299 299 300 301 303 305 305 306 307 308 310 312 313 315 317 318
299 300 300 301 301 302 301 301 301 300 300 300 301 301 301 301 301 302 302 302 302 302 303 304 304 304 304 304 303 303 303 303 303 303 303 303 303 302 302 302 301 301 301 300 300 300 300 300 300 300 300 300 299 299 299 299 300 300 299 299 299 299 299 299 299 298 298 298 298 298 299 300 301 302 304 304 305 306 308 309 311 313 314 316 317
298 299 299 300 300 300 299 298 298 298 298 298 298 298 299 299 300 300 300 301 301 301 302 302 303 302 302 302 302 302 302 302 302 302 301 301 301 301 300 300 299 299 299 299 298 298 298 298 298 298 298 298 298 298 298 298 298 298 298 299 298 298 298 298 298 298 298 298 298 299 299 300 301 303 304 305 306 307 308 309 311 312 313 315 316
297 298 298 298 299 298 297 296 296 296 296 296 297 297 298 298 298 298 298 299 299 300 300 301 301 301 301 301 300 300 300 300 300 300 300 300 299 299 299 298 298 298 297 297 297 296 296 296 296 296 297 297 297 297 297 297 297 297 297 297 297 296 296 296 297 297 298 299 299 299 300 300 302 304 306 307 308 308 308 309 311 312 313 315 316
296 296 297 297 297 297 296 295 295 294 294 295 296 297 297 297 296 296 297 297 297 297 298 299 299 299 299 299 299 299 299 299 299 299 299 298 298 298 298 297 297 297 297 296 296 295 295 295 295 295 295 295 295 295 295 295 295 295 295 295 295 295 295 295 296 297 298 299 300 300 301 301 303 304 307 308 309 309 309 311 312 313 314 315 316
Wind_Speed
28 29 31 30 30 29 27 28 30 27 23 21 21 22 23 22 21 21 20 19 19 19 20 20 19 18 18 18 18 17 17 16 15 14 13 14 14 13 12 12 12 13 12 12 11 11 10 10 11 10 8 8 8 8 8 9 10 9 8 8 7 7 8 8 8 10 13 12 12 12 11 11 11 11 11 11 11 12 13 13 14 15 15 15 16
30 30 31 31 31 30 28 28 30 29 26 23 22 22 22 23 22 21 22 21 20 20 20 21 21 20 20 19 19 19 18 17 16 15 15 14 14 14 13 12 13 13 13 13 12 12 11 12 12 11 9 9 9 8 9 10 10 10 10 10 10 9 9 10 9 10 14 16 15 15 14 13 12 12 12 13 15 15 15 14 13 14 14 14 15
28 29 28 28 28 28 27 27 28 29 28 26 25 24 23 23 22 22 22 22 22 22 21 21 22 22 21 20 19 20 20 19 17 16 16 15 15 15 14 14 14 14 14 14 13 12 12 12 12 12 11 11 11 10 10 10 10 10 9 9 10 10 10 11 10 10 13 16 16 16 16 15 14 14 14 15 15 15 15 15 13 13 12 13 14
21 22 23 25 27 27 26 25 26 28 29 28 27 26 25 25 23 23 23 23 23 24 23 23 22 23 22 21 21 21 21 21 19 18 18 17 17 16 15 15 15 15 16 16 15 14 14 14 13 12 13 14 14 13 12 11 11 10 10 9 10 11 11 12 12 12 12 14 16 17 17 17 17 16 15 15 16 15 15 15 15 14 14 13 15
18 20 23 25 27 27 25 25 25 27 28 28 28 28 27 26 26 25 25 24 24 25 25 24 24 24 25 24 23 23 23 22 21 21 20 19 19 18 17 17 17 17 17 17 17 17 16 16 15 13 14 15 15 15 15 14 13 12 12 11 11 12 12 13 14 14 14 15 17 18 17 17 18 18 17 16 17 18 18 18 17 17 16 15 16
18 21 25 26 26 27 27 27 28 28 28 27 27 27 27 27 27 27 27 26 26 26 26 26 26 26 26 26 26 25 25 24 24 23 22 22 22 21 20 20 19 18 18 18 17 18 18 18 18 16 16 17 17 16 15 15 14 13 13 13 13 14 14 15 15 16 16 17 18 19 20 19 19 21 20 18 18 20 21 22 22 20 18 17 20
15 16 22 24 26 27 28 29 29 28 27 26 25 25 26 27 27 27 27 27 27 28 28 28 28 28 28 27 27 27 26 26 25 24 23 23 23 23 22 22 22 21 21 20 19 18 18 19 19 18 18 18 18 17 16 15 15 15 16 16 16 16 17 18 18 18 19 19 19 20 21 20 20 22 22 20 20 20 21 21 23 23 21 21 23
15 17 20 20 23 26 29 28 26 24 23 23 23 24 24 26 27 28 28 28 29 29 29 29 29 28 28 28 28 28 27 27 27 26 24 23 23 24 24 24 24 24 23 23 21 21 20 20 20 20 20 19 19 18 17 16 17 17 18 18 18 19 19 20 20 20 20 20 21 22 22 21 22 23 23 22 21 22 20 17 19 24 24 23 24
11 17 20 18 18 22 25 26 24 22 21 21 21 21 21 22 24 28 30 30 29 29 28 29 30 30 30 29 29 29 29 29 28 28 27 25 24 24 25 25 25 26 26 25 24 24 23 22 22 22 21 21 20 20 19 19 19 20 19 19 20 21 22 23 23 23 22 21 22 23 22 22 24 25 24 23 23 23 22 19 20 23 25 24 24
9 11 13 15 17 19 20 20 20 20 21 22 21 20 19 19 19 23 27 29 29 28 28 29 30 31 32 31 30 30 30 30 30 29 29 28 27 27 27 27 27 27 28 28 28 27 26 25 25 24 23 22 22 22 22 21 21 21 21 21 22 23 24 25 24 24 23 21 22 23 21 22 26 27 25 26 26 25 24 22 22 23 23 22 23
7 6 6 7 11 14 13 12 11 12 14 17 18 19 19 19 17 18 21 23 23 23 23 25 27 29 31 32 31 31 31 32 31 31 30 30 29 29 29 29 29 29 30 30 30 30 29 28 27 26 25 25 24 24 24 23 23 22 22 22 23 24 26 26 26 26 24 22 23 23 21 23 28 29 28 29 29 27 26 24 22 22 20 17 18
11 10 8 7 6 5 4 3 3 2 3 6 10 15 17 18 19 22 25 23 20 19 18 19 21 24 26 29 30 30 31 32 31 31 31 31 31 31 31 32 31 31 32 31 32 31 31 30 30 29 28 28 27 27 27 27 26 25 25 25 24 25 26 27 28 27 25 24 24 24 24 25 28 30 30 30 29 28 26 24 22 21 20 18 18
15 13 11 11 11 11 11 9 7 4 3 3 3 7 11 12 14 20 25 24 20 18 19 17 17 18 20 23 26 28 30 30 31 31 30 31 31 32 33 33 33 33 33 33 33 33 32 32 31 30 30 29 29 29 29 29 29 29 29 28 28 28 27 27 28 27 27 26 26 27 28 27 28 30 31 30 28 27 26 26 25 23 21 21 22
20 19 15 12 9 11 13 14 12 10 7 7 6 1 7 7 9 12 16 16 15 15 16 17 17 16 17 19 21 23 25 26 27 27 28 29 30 31 33 33 34 34 35 34 34 34 34 33 32 32 31 30 29 29 29 30 30 30 31 31 31 31 30 29 30 30 30 30 29 30 30 30 30 31 31 30 29 29 29 29 28 26 25 25 26
22 22 20 15 12 13 15 15 14 14 13 11 10 5 1 4 8 10 10 10 11 12 12 13 14 14 15 15 17 18 19 19 19 21 22 24 25 28 30 32 33 34 35 35 35 35 35 34 34 34 33 32 31 30 30 30 30 30 31 31 32 32 32 32 32 32 32 32 31 32 31 31 31 32 32 31 31 31 32 30 28 27 27 26 26
22 21 21 18 15 15 16 15 14 13 12 11 11 8 6 5 6 8 9 8 8 10 10 8 8 9 10 11 12 14 15 15 16 17 18 19 19 21 25 28 31 33 34 35 35 35 35 35 35 35 35 35 33 32 32 31 30 30 31 32 33 34 34 34 33 32 32 32 32 32 31 31 31 31 32 32 32 33 32 29 27 27 26 23 24
20 19 19 18 15 14 14 14 14 13 12 11 11 9 7 7 8 7 8 7 6 6 7 5 4 5 6 6 8 9 10 11 14 16 17 17 17 18 20 21 24 27 30 32 33 34 34 34 34 34 35 36 36 35 35 33 31 31 31 32 33 34 35 36 34 33 33 33 32 32 31 31 30 30 31 30 31 32 31 27 27 27 24 19 19
17 16 15 15 15 14 13 14 14 14 14 14 13 11 10 8 7 7 7 5 4 4 5 5 5 5 6 6 7 8 8 8 9 10 11 11 12 15 17 18 20 21 23 25 28 30 31 33 33 33 34 36 36 36 36 34 33 33 33 33 33 33 35 36 35 35 35 33 32 31 30 30 29 29 29 28 28 29 30 30 30 28 23 19 20
15 13 11 11 12 13 13 14 15 15 16 16 14 12 12 10 7 5 6 6 6 8 9 8 8 8 7 7 7 7 7 7 7 8 7 7 8 10 12 15 17 19 20 21 22 23 25 27 28 28 30 31 32 32 32 32 33 35 35 32 31 33 36 36 34 34 34 33 33 32 30 29 28 28 29 29 27 27 29 31 30 28 26 25 25
14 12 9 9 10 12 12 13 14 15 16 16 14 12 12 11 8 7 8 10 12 13 14 13 12 12 12 11 9 9 10 9 8 7 7 6 6 7 9 12 14 15 17 18 19 20 21 22 23 24 24 25 26 26 26 27 29 32 33 32 31 34 35 33 31 31 31 31 31 31 30 29 30 30 30 30 29 28 29 29 29 28 29 29 29
11 10 9 8 9 10 11 12 13 14 15 15 13 12 13 12 11 10 12 14 15 16 17 16 16 15 16 15 13 11 11 13 12 10 9 9 8 7 8 9 10 13 14 15 17 18 18 19 20 20 20 19 20 21 21 22 23 26 30 31 32 33 32 31 31 31 30 31 31 32 33 33 33 32 31 31 30 29 29 29 28 28 29 30 31
9 9 8 8 9 9 9 11 12 13 13 13 12 12 13 14 13 13 13 14 16 17 17 17 17 17 17 18 17 15 13 14 14 13 11 11 11 10 10 11 11 11 12 14 15 17 17 18 18 17 17 17 18 19 19 20 21 23 26 27 28 29 29 30 31 31 32 33 33 34 34 34 33 33 33 32 31 30 29 29 29 29 30 31 31
8 8 8 8 9 9 8 9 10 12 13 12 11 11 12 13 13 14 15 15 16 17 18 18 18 18 18 18 18 18 17 16 16 15 13 13 13 12 11 12 14 14 14 14 14 14 15 16 17 17 17 18 19 20 20 21 22 23 24 25 25 25 25 26 28 29 30 31 31 32 33 32 32 33 33 32 31 30 29 29 30 30 31 32 32
9 9 9 10 10 9 9 8 8 10 12 11 10 11 12 13 14 15 16 16 17 18 19 19 18 19 20 19 19 20 20 20 19 18 17 17 17 16 13 12 14 15 15 16 16 15 15 15 15 15 16 16 17 19 20 20 22 23 24 24 24 24 24 25 26 26 27 28 29 30 32 33 32 33 34 34 32 31 30 30 30 31 32 33 34
11 10 10 11 11 11 10 8 7 9 11 10 10 11 12 14 15 17 17 16 17 18 18 18 19 19 20 21 22 22 22 23 22 22 22 21 20 18 15 14 14 15 15 16 16 16 16 17 17 17 17 17 17 18 19 19 20 20 21 22 23 25 25 26 25 24 25 27 29 30 32 33 34 34 35 35 33 32 31 31 31 32 32 33 34
11 11 11 11 11 12 11 10 9 9 9 9 9 10 12 14 16 17 17 16 16 16 16 17 19 20 21 22 23 24 24 24 23 23 23 22 21 19 17 15 15 14 14 15 16 16 16 17 18 19 20 20 20 21 22 22 21 21 21 21 21 22 23 24 25 25 27 29 31 31 33 35 35 36 36 34 33 33 33 32 32 33 32 31 32
9 10 11 11 12 12 12 12 12 11 9 9 10 11 12 14 15 16 16 16 15 15 16 17 18 20 22 24 25 25 24 24 23 23 24 23 22 20 18 16 15 14 14 16 17 17 17 16 17 17 18 19 21 22 24 25 25 25 24 23 23 22 21 21 23 25 28 31 32 33 34 35 34 34 34 32 32 34 33 31 32 33 32 29 29
8 8 10 11 12 12 12 13 13 13 11 9 9 11 11 12 13 14 14 13 13 13 15 17 18 20 21 23 24 24 24 24 24 24 24 24 23 21 18 16 15 15 16 18 18 18 17 16 15 15 16 17 19 21 22 24 25 26 26 25 24 23 21 20 21 23 26 29 31 32 34 33 32 32 32 31 32 33 32 30 31 33 31 27 25
8 8 9 10 11 12 13 12 13 13 12 9 8 9 10 10 11 11 10 10 10 12 14 16 17 19 20 20 20 22 23 23 22 22 22 21 20 18 17 16 16 16 17 18 18 18 17 16 17 17 17 17 17 18 20 22 23 23 24 24 24 23 21 20 21 23 25 26 28 30 31 31 31 31 30 30 32 32 30 29 30 31 28 25 25
9 10 10 10 11 12 12 12 12 13 12 10 8 8 8 8 9 10 9 9 10 12 14 16 17 17 17 16 17 18 19 19 19 19 19 18 16 14 14 15 16 17 17 17 17 18 19 20 20 20 19 18 18 18 19 21 22 23 23 23 23 22 22 22 23 24 24 25 26 28 29 29 30 30 29 29 31 32 30 28 28 28 26 24 24
11 11 12 12 12 12 12 11 11 11 10 9 9 9 8 8 9 9 10 10 11 11 13 15 15 14 14 16 16 14 15 17 18 19 19 19 17 16 16 16 16 16 17 17 18 19 20 20 20 20 19 19 19 19 20 20 21 22 23 23 22 22 22 23 24 24 25 26 26 27 28 28 29 30 29 29 31 31 31 29 27 26 25 24 24
13 13 14 14 13 12 11 10 9 9 8 8 8 8 8 9 10 10 10 10 11 12 13 14 13 12 14 16 15 12 14 18 19 19 20 20 19 19 19 18 17 17 17 18 19 20 20 20 20 20 20 20 21 22 23 22 23 24 24 24 23 22 22 23 25 25 26 26 27 28 28 28 29 30 30 30 30 31 31 29 27 25 25 24 24
12 12 14 14 12 10 10 9 9 8 8 8 8 8 8 9 10 11 12 11 12 12 12 12 13 13 14 15 14 12 14 18 20 20 21 21 20 20 19 18 18 18 19 19 19 19 20 20 20 20 21 22 23 25 25 24 24 24 25 24 24 25 24 23 24 25 26 27 28 29 30 30 30 30 30 30 30 30 30 30 28 26 24 23 24
10 9 11 12 12 11 11 10 9 9 8 8 7 8 9 10 11 12 12 13 13 13 12 13 13 13 14 15 14 13 15 19 20 21 21 21 20 20 19 18 18 19 20 19 19 18 18 19 19 20 21 23 24 24 24 24 24 24 24 24 25 26 27 26 25 25 25 25 27 29 31 31 31 31 31 30 30 29 29 29 28 27 25 23 23
8 7 9 11 12 13 12 12 11 10 10 9 9 8 8 9 9 10 10 11 12 12 13 14 14 14 15 15 14 15 17 20 20 20 20 20 19 19 20 20 19 20 20 20 19 18 17 18 18 19 20 22 23 23 23 23 23 23 24 25 25 26 27 27 26 26 27 26 26 26 28 30 32 32 31 31 29 28 28 28 27 27 26 24 24
8 8 9 11 12 13 13 13 13 12 12 12 11 10 9 9 8 9 9 10 10 10 11 13 14 15 14 14 14 16 18 19 20 20 20 19 18 19 19 18 18 18 19 19 19 20 20 19 19 19 19 20 21 22 22 23 24 24 24 24 25 26 26 25 26 27 28 27 26 26 26 26 28 30 30 30 30 28 28 28 27 26 26 25 24
7 9 10 11 12 13 14 14 14 15 14 14 14 13 13 12 11 11 11 11 10 10 12 14 15 15 15 15 16 18 18 18 18 18 18 17 17 17 16 15 15 16 17 18 19 21 22 22 21 21 21 20 21 22 23 24 25 26 25 25 26 26 26 25 26 26 25 25 26 26 25 25 25 26 27 27 28 27 26 26 24 25 27 28 27
7 9 10 11 12 14 15 16 16 17 16 15 15 15 15 14 14 14 13 12 12 12 13 13 14 15 16 17 18 18 18 18 17 16 16 15 15 14 14 14 14 15 16 17 19 20 21 22 22 22 22 22 22 23 24 25 25 26 26 27 27 27 26 26 25 24 24 24 25 25 25 25 25 26 26 26 26 26 25 24 24 25 27 27 27
9 10 10 11 12 13 15 16 16 17 16 16 16 16 16 16 16 16 15 15 14 13 13 13 13 13 14 16 17 18 19 18 16 15 15 15 15 14 14 14 14 15 16 17 19 19 20 21 22 23 24 24 23 23 24 24 25 25 26 26 26 27 26 26 26 25 25 25 25 25 25 26 26 26 25 25 25 26 25 25 25 25 25 27 27
9 10 11 12 12 14 15 16 16 16 17 17 17 18 17 17 16 16 16 16 15 15 14 13 14 14 15 16 17 18 18 17 15 13 14 14 15 14 14 15 15 16 17 18 19 19 19 21 22 24 25 26 25 24 24 24 24 25 25 24 24 25 26 26 26 26 25 26 26 26 26 26 26 25 24 24 25 25 25 26 26 25 25 27 30
8 9 10 12 14 16 16 16 16 17 17 18 19 19 19 18 17 17 17 17 16 16 16 15 15 16 16 16 17 17 18 17 15 14 14 14 13 13 13 14 15 16 17 19 20 20 21 21 22 24 25 26 26 26 26 25 24 23 23 23 24 25 25 25 25 26 27 27 28 27 26 26 26 25 26 27 28 27 25 25 27 27 26 26 28
6 8 10 12 14 14 15 17 18 18 19 19 19 19 18 18 18 18 19 18 18 18 18 17 17 17 17 17 18 18 18 17 16 15 15 14 14 14 14 14 14 15 16 18 20 22 23 24 24 24 25 25 26 26 26 25 25 23 22 23 24 25 25 25 25 26 27 28 28 28 28 30 31 31 30 30 29 28 27 26 27 28 27 26 26
6 7 8 10 11 12 14 17 17 18 18 18 18 17 17 18 18 19 19 19 19 19 18 19 19 19 18 18 19 18 17 16 16 16 16 16 17 17 17 16 15 15 15 17 19 21 24 25 26 26 26 25 24 24 24 24 24 24 24 25 26 26 26 26 27 28 29 30 31 32 33 35 36 35 34 32 29 28 28 29 29 28 27 26 26
8 9 10 11 12 13 14 14 15 16 16 16 16 16 17 17 18 19 19 19 19 19 20 20 21 21 20 20 19 19 19 18 17 17 18 18 19 19 19 18 17 17 17 19 20 21 22 23 25 26 26 25 24 23 23 22 23 23 24 25 26 27 28 29 29 31 33 33 34 35 37 38 38 37 36 35 32 30 29 30 29 28 28 27 27
10 10 11 11 11 11 11 11 12 14 14 14 14 15 16 16 17 18 18 18 19 19 20 21 21 20 20 21 21 20 20 20 19 19 19 19 20 20 20 20 19 19 20 21 21 22 22 23 23 24 24 24 23 23 23 23 23 24 25 26 27 29 31 32 32 33 32 32 34 35 35 37 39 39 38 37 34 31 29 29 29 28 28 28 27
9 8 8 8 8 9 9 10 10 11 12 13 14 14 15 15 16 17 17 17 18 19 19 20 20 20 21 21 21 21 21 21 21 21 21 21 21 21 21 21 21 22 22 23 23 23 24 23 23 23 23 23 23 23 24 26 26 26 27 28 29 32 33 34 33 33 32 31 33 33 33 35 39 41 40 39 38 35 33 32 30 29 28 28 28
7 7 7 8 8 8 8 8 9 11 13 14 13 13 14 15 16 16 17 18 19 19 19 19 20 20 21 21 21 21 21 21 21 21 21 21 22 22 23 23 23 24 24 24 25 25 25 24 24 24 24 24 24 25 25 27 29 30 31 31 32 33 35 35 35 34 34 34 35 36 36 38 41 41 41 40 40 40 40 38 35 31 28 28 28
5 6 7 7 7 8 8 9 10 12 13 13 13 13 15 15 16 17 19 20 20 20 20 19 19 19 20 21 21 21 22 22 22 21 22 22 22 22 23 24 25 25 26 26 26 26 26 25 25 25 25 26 26 27 27 28 29 31 33 34 34 35 36 37 36 36 35 35 36 36 37 38 39 39 40 40 40 41 42 41 37 33 30 29 29
4 5 6 6 6 8 9 11 12 12 12 13 14 15 16 16 17 18 19 19 20 20 20 20 20 20 20 20 20 21 21 22 22 23 23 23 22 22 23 24 25 26 27 28 28 28 27 26 26 26 27 27 27 28 29 29 30 32 34 36 37 38 38 37 36 35 33 34 35 35 35 36 37 37 38 38 39 39 39 37 35 32 31 30 29
4 5 5 5 6 8 10 12 13 13 13 14 15 15 15 16 17 17 18 18 19 20 20 20 20 20 20 21 21 22 22 22 23 23 23 23 23 24 24 25 25 26 27 28 28 28 27 27 27 27 27 28 28 29 30 30 32 33 35 36 37 38 37 35 34 33 31 32 33 35 35 36 37 37 36 36 36 36 36 35 34 32 30 28 28
4 5 5 5 5 7 8 9 11 13 13 13 13 14 15 16 17 18 18 19 20 20 20 21 21 21 21 21 22 23 23 23 23 22 23 23 24 24 24 24 26 27 27 28 27 27 27 26 26 26 27 28 29 29 30 31 32 33 33 34 34 34 34 33 33 31 30 29 31 33 34 35 35 35 35 35 34 35 35 35 33 32 30 30 29
Wind_Direction
207 208 211 213 216 218 218 217 216 220 224 228 232 233 233 234 235 238 240 240 242 243 242 242 241 241 242 242 244 242 240 238 235 234 238 241 241 241 240 240 245 249 249 248 249 258 269 273 269 263 269 283 285 290 296 299 298 295 295 299 298 292 295 292 279 287 300 303 304 311 318 319 318 323 324 320 320 321 319 313 309 306 304 303 303
209 211 213 213 216 219 219 218 216 218 222 225 230 231 232 233 236 240 242 241 241 243 245 244 242 243 246 246 245 243 241 241 239 237 238 239 239 239 239 239 240 242 245 247 248 255 264 269 265 255 259 273 275 278 288 295 296 291 282 281 287 293 301 303 294 290 298 303 306 309 314 317 316 317 319 317 321 325 321 314 308 304 304 304 303
211 212 212 213 216 220 222 222 220 220 222 226 230 231 232 234 236 239 242 244 243 243 245 245 242 243 245 244 242 240 239 240 238 236 239 240 238 237 237 239 242 243 244 244 245 251 258 263 262 255 255 263 267 269 276 285 293 292 283 277 279 283 292 300 299 292 295 302 306 306 308 310 310 312 314 313 317 322 319 316 314 312 310 308 305
212 211 212 214 216 218 222 225 225 226 226 228 231 233 235 236 236 239 242 245 246 244 246 246 243 243 244 243 242 240 240 241 240 239 240 242 242 241 240 242 246 248 248 248 247 251 257 259 261 261 261 263 265 266 267 273 283 288 285 280 278 279 284 290 295 296 294 296 302 306 306 304 304 308 311 311 313 315 314 316 317 315 314 313 311
207 208 212 216 218 217 218 222 227 230 231 232 233 236 238 238 239 240 241 244 247 247 247 247 245 245 247 247 246 246 245 245 245 245 245 245 246 248 248 248 249 250 251 253 254 256 258 259 262 266 269 271 271 270 268 268 274 279 280 281 280 281 284 285 289 293 290 288 294 300 302 301 301 303 306 309 311 310 310 313 314 313 313 314 314
199 208 216 219 219 218 217 218 222 226 230 233 236 238 240 240 241 242 242 242 244 246 247 247 247 246 249 251 250 250 251 250 249 251 252 250 250 251 253 254 254 253 253 255 257 259 261 261 262 264 268 273 276 276 273 270 271 274 276 277 279 281 283 283 285 287 286 286 289 292 294 296 296 298 302 305 307 307 308 310 313 314 314 314 315
189 204 218 221 220 219 219 219 218 219 223 228 234 238 241 242 242 244 244 243 244 246 246 247 247 247 248 250 250 251 252 251 251 252 254 254 253 252 254 256 257 257 256 256 257 259 262 263 263 263 264 268 272 274 274 273 273 276 277 278 279 280 282 283 283 284 284 284 284 285 289 292 294 295 298 301 301 301 303 306 310 314 315 314 315
197 207 218 226 228 225 225 224 218 215 218 223 228 233 238 243 245 246 246 246 247 247 246 246 247 248 249 249 250 251 251 250 249 248 249 251 252 252 254 257 259 259 260 260 260 260 262 264 264 264 264 266 267 268 269 270 273 277 278 280 282 282 282 282 282 281 280 280 280 282 285 287 290 292 294 296 296 297 301 301 301 305 309 311 314
199 210 221 236 242 237 234 233 228 223 224 226 228 229 232 240 247 248 247 247 249 249 247 246 246 247 249 250 250 250 250 250 249 249 249 249 249 251 254 256 258 259 260 262 262 262 263 265 266 266 267 268 269 269 268 269 271 275 277 280 282 283 283 282 281 279 277 276 277 279 281 282 285 288 290 292 294 297 300 296 292 297 302 304 309
197 206 221 240 249 245 239 237 237 235 235 235 236 233 232 232 239 247 247 245 246 248 246 246 246 247 248 249 250 249 249 251 253 253 253 253 253 253 254 256 258 259 260 261 262 263 263 265 267 268 269 270 271 272 271 271 271 272 275 277 280 282 282 281 281 280 277 274 276 279 279 280 284 286 287 291 294 295 295 292 290 295 299 299 305
150 154 178 213 232 238 240 241 247 253 254 254 252 247 242 237 236 247 250 241 236 239 241 241 242 245 248 249 250 250 250 252 254 255 256 257 258 257 257 258 259 260 261 261 263 265 265 266 269 270 270 271 271 272 274 273 272 271 271 273 275 279 280 279 279 280 277 273 276 278 275 276 283 287 286 289 291 291 292 292 290 291 294 292 297
91 93 94 93 109 129 143 175 204 245 275 288 279 262 255 253 251 254 256 250 238 232 233 234 237 241 245 248 250 251 252 254 255 256 257 258 259 259 259 260 260 261 263 264 265 267 268 270 271 272 273 273 273 274 274 274 273 271 270 270 271 274 276 276 277 277 276 274 274 275 274 275 280 285 286 286 288 289 290 291 289 287 287 284 283
72 70 65 58 64 72 74 83 93 98 106 60 355 266 250 254 254 250 252 253 248 238 231 231 235 238 241 245 249 250 253 256 257 258 259 260 260 259 258 258 259 261 263 265 267 269 270 272 273 274 277 277 277 276 276 276 276 274 273 272 271 271 272 273 274 275 275 274 270 272 277 277 276 282 288 287 285 286 286 286 287 286 284 284 286
67 66 67 62 54 52 54 59 63 57 55 62 59 242 237 248 252 247 245 248 251 250 240 233 234 237 239 243 247 250 252 255 257 258 259 260 261 260 260 259 259 260 262 264 266 268 270 271 272 275 278 279 279 279 279 280 280 279 277 276 275 275 273 272 273 274 277 276 271 272 280 281 278 284 292 289 282 282 282 282 285 286 285 287 290
65 65 66 64 56 51 51 54 58 56 53 55 58 58 301 283 275 268 263 256 257 263 257 243 238 241 245 246 248 250 251 253 255 256 257 259 260 261 261 261 261 261 261 263 264 266 269 270 271 274 277 279 281 281 281 281 281 280 280 279 279 279 278 277 278 279 281 282 280 280 284 286 285 288 292 291 286 286 285 282 282 285 285 286 288
61 61 62 60 53 47 48 52 56 57 55 53 51 48 38 20 342 304 294 290 282 278 274 262 251 253 258 261 264 263 259 256 254 254 255 257 260 262 262 262 262 262 262 263 262 263 266 268 269 272 275 278 281 283 283 282 279 278 278 279 280 280 280 282 284 283 284 284 284 284 284 286 287 288 290 289 287 288 286 281 280 281 279 280 283
52 54 56 55 50 43 42 47 48 48 48 47 45 41 37 36 26 356 320 303 301 299 298 304 307 297 295 298 299 296 287 276 269 265 265 266 267 268 270 271 270 268 267 266 265 264 264 265 268 270 273 277 280 283 284 283 280 278 277 277 278 278 280 284 285 285 285 284 283 283 284 285 286 287 287 287 286 285 280 273 276 278 273 272 276
44 46 47 47 46 43 41 42 40 37 36 36 36 35 33 34 35 19 349 326 335 354 354 1 7 356 347 345 342 336 327 315 303 292 284 281 280 278 278 280 280 278 277 276 273 270 269 269 269 269 271 274 278 280 282 282 281 280 278 277 276 276 279 283 284 285 286 284 283 283 284 286 287 288 288 287 286 284 275 271 276 276 268 264 267
39 38 38 38 38 37 36 37 36 33 30 27 27 29 29 34 46 40 16 13 27 33 31 32 33 28 18 10 6 360 351 338 326 319 310 299 296 292 286 285 285 285 285 286 285 283 281 280 278 276 276 278 280 282 283 282 280 279 278 276 273 274 278 282 284 285 286 286 285 286 286 287 289 289 290 289 287 284 279 277 279 273 264 263 265
39 42 44 42 36 28 23 24 27 28 25 22 25 30 30 34 54 67 55 52 51 47 45 45 43 40 36 30 24 15 8 1 349 341 339 331 319 313 304 298 297 296 294 291 289 287 285 284 284 283 283 283 284 284 284 283 282 281 278 273 269 273 279 283 284 285 287 287 287 287 286 288 289 289 289 288 287 286 284 283 281 275 267 264 263
40 48 51 44 36 29 23 18 18 22 23 22 27 38 40 42 56 67 59 51 47 43 41 40 37 35 36 35 31 22 15 11 6 2 5 2 351 344 341 332 320 311 304 298 295 293 290 289 290 291 290 289 288 287 287 287 286 283 279 275 274 277 280 280 280 281 282 282 283 284 284 285 286 286 287 287 287 286 286 284 283 279 273 266 263
27 36 40 34 28 28 27 18 11 11 17 21 26 37 45 49 54 55 47 39 36 36 34 30 26 25 28 32 32 29 24 18 10 4 5 9 8 6 6 3 352 335 321 309 301 298 297 297 299 296 291 288 286 286 287 288 287 285 284 282 282 282 282 280 280 280 279 279 280 281 282 283 284 285 285 285 286 287 287 286 285 283 278 274 269
2 9 16 18 19 20 21 18 10 4 8 17 20 23 31 38 40 38 34 29 29 31 29 25 19 16 17 21 23 22 20 20 20 15 10 9 11 8 1 358 354 349 346 339 325 311 301 295 291 285 280 279 281 282 283 283 282 283 284 286 287 287 286 284 283 282 281 281 281 280 281 282 282 282 283 284 286 289 290 290 289 286 282 280 276
348 350 355 360 4 7 8 10 8 360 1 10 17 18 20 24 26 25 24 24 25 25 25 23 19 15 13 12 12 12 10 10 15 18 15 11 8 3 355 350 348 347 347 347 341 331 321 311 304 298 292 289 288 286 285 284 283 281 282 283 285 287 287 286 286 285 283 281 279 278 279 280 280 280 281 283 286 288 288 289 288 285 283 281 280
352 346 345 349 351 353 356 1 4 358 355 357 5 12 14 13 14 13 14 17 20 19 21 22 21 17 14 10 7 5 2 0 4 9 10 8 6 2 356 353 353 350 346 343 338 332 326 320 316 315 311 307 303 299 295 293 291 290 288 287 286 286 286 285 285 284 281 279 277 276 277 279 280 281 283 284 283 282 281 282 283 282 280 280 280
359 353 349 346 345 345 348 352 356 356 351 346 349 357 0 2 4 5 7 11 15 19 22 22 18 14 10 6 1 358 356 358 2 4 5 5 5 4 1 358 358 356 350 345 341 337 332 326 321 318 315 313 310 307 305 303 302 300 299 298 296 294 292 290 286 280 277 277 277 276 277 280 282 283 283 283 280 278 277 277 277 277 277 276 276
356 354 352 349 346 345 346 348 351 351 345 339 338 338 342 350 356 1 4 7 12 19 21 19 15 10 5 359 355 353 355 359 2 0 359 359 1 2 2 1 0 359 353 348 346 345 340 335 331 326 322 318 313 309 307 306 306 305 304 304 303 301 299 298 293 285 280 278 277 278 279 281 282 282 282 281 278 277 276 275 273 273 273 273 272
355 353 353 352 349 347 346 347 350 351 347 337 331 331 337 346 354 0 5 7 10 15 13 11 9 6 2 358 355 353 356 1 2 358 355 355 356 358 1 2 360 358 353 348 348 348 344 341 342 341 337 328 320 314 310 307 305 304 304 304 305 305 305 304 299 293 288 284 282 281 282 283 283 283 282 281 279 277 276 273 270 270 271 269 265
358 356 353 348 344 343 342 343 347 350 351 347 334 331 339 349 352 355 0 1 2 4 4 3 1 359 359 2 1 357 358 2 4 2 358 357 357 358 1 2 1 359 356 352 350 352 355 357 359 356 350 342 332 324 319 313 308 306 303 303 303 303 303 300 296 295 295 292 286 284 284 285 285 285 283 281 279 279 277 273 270 269 268 264 260
2 359 356 351 345 340 338 338 341 343 346 348 339 329 335 345 346 345 344 341 343 349 351 351 353 355 360 4 6 6 9 13 13 10 8 10 13 13 11 8 5 2 360 357 359 4 6 6 2 356 351 346 340 333 327 320 314 309 306 303 301 299 298 295 292 293 294 292 287 286 285 284 284 284 283 281 280 281 279 275 271 269 265 260 260
6 3 3 2 358 353 345 341 341 340 339 341 339 333 333 337 333 328 327 328 332 337 339 340 346 357 4 5 7 16 22 19 15 13 13 14 18 19 16 12 10 8 7 8 14 17 14 9 4 360 356 352 348 344 340 335 328 321 315 310 305 300 297 294 293 293 292 289 287 286 285 283 282 282 281 280 280 281 280 278 274 269 263 259 259
5 5 7 5 3 2 1 1 1 356 346 342 342 340 338 336 329 322 319 320 323 327 331 337 345 357 6 6 7 13 13 7 6 7 8 7 5 6 8 10 12 14 16 21 23 19 13 9 6 3 0 356 351 348 345 343 340 336 332 327 321 315 308 301 297 293 288 286 286 286 285 283 281 281 281 281 279 278 278 277 273 268 263 261 260
357 4 9 6 2 4 8 8 6 3 356 350 344 339 336 334 332 327 322 319 319 321 327 338 348 355 2 5 6 5 360 356 354 356 358 358 357 358 1 4 7 10 15 22 24 18 11 7 3 358 355 350 345 342 339 337 335 334 333 332 330 328 324 319 313 304 293 286 283 282 282 283 282 280 279 278 276 275 274 274 272 269 266 263 262
349 1 8 5 4 8 11 8 4 360 355 349 340 334 332 333 336 336 332 330 330 329 331 339 346 351 355 358 358 356 353 352 350 350 352 353 354 354 353 354 359 3 8 14 18 15 9 4 358 353 349 345 341 338 335 333 331 330 329 327 326 326 325 325 325 322 314 304 293 284 278 278 279 279 278 276 274 271 271 271 271 268 265 264 265
347 0 3 359 0 4 4 5 8 6 2 357 351 346 341 339 341 343 342 340 339 337 338 341 345 346 348 352 352 348 347 349 350 350 350 350 350 350 349 351 357 3 5 6 8 7 3 358 353 348 345 342 340 337 334 331 329 327 326 324 323 323 323 323 323 323 323 321 315 304 292 282 277 275 275 275 273 268 266 267 268 265 263 264 266
350 358 356 351 353 354 351 351 356 360 1 0 359 355 354 354 353 353 352 351 349 345 343 345 344 342 344 349 350 346 345 346 347 347 348 348 348 350 352 356 0 1 1 1 360 356 353 350 346 343 342 340 339 336 332 330 327 325 322 320 320 320 320 320 320 320 320 321 320 318 316 307 294 285 278 274 271 268 265 265 265 263 263 263 266
345 346 346 343 344 346 344 340 341 344 347 350 351 350 350 351 351 351 354 356 354 350 347 347 345 342 341 343 344 343 342 343 343 343 344 346 347 348 352 355 356 355 356 356 354 349 345 343 341 339 338 336 335 332 329 328 327 325 322 319 318 317 316 316 317 318 319 318 317 319 321 320 316 309 299 285 275 270 268 266 266 267 268 268 268
330 330 334 338 339 341 340 337 335 336 339 342 345 345 344 343 344 347 350 351 349 346 345 344 343 341 339 340 341 341 340 340 340 341 342 344 343 343 344 345 348 349 350 350 347 343 340 338 338 337 334 331 329 328 327 327 326 325 322 319 317 317 317 317 317 318 318 317 317 318 317 316 317 318 316 306 295 288 283 279 275 273 271 269 266
311 312 317 322 328 334 338 337 335 335 337 340 341 340 339 338 339 340 341 341 340 339 339 338 337 338 338 338 339 340 340 340 339 337 338 340 338 335 334 337 340 342 343 343 342 339 336 335 335 334 331 328 326 324 324 324 323 322 321 320 318 316 317 318 318 318 319 317 316 316 316 316 314 314 315 314 309 304 301 296 290 282 277 274 270
305 308 310 312 318 325 330 332 331 332 334 335 334 335 335 334 333 334 334 333 332 331 331 331 331 332 334 335 336 338 338 337 334 331 332 334 333 328 327 329 332 334 336 337 336 335 333 333 333 331 328 326 324 322 321 320 319 319 318 317 315 314 314 315 315 315 316 316 314 314 314 313 313 313 312 310 308 307 307 305 302 298 293 287 281
304 309 311 311 314 319 323 325 325 326 327 327 327 329 331 331 330 331 331 329 328 326 326 326 326 329 331 333 334 335 333 330 326 324 325 328 328 324 321 321 323 325 328 331 332 332 332 331 329 327 325 323 322 320 319 317 316 315 315 314 313 311 311 311 311 312 312 313 314 313 312 311 311 310 309 307 306 307 306 304 302 301 299 296 291
302 310 312 312 314 317 319 319 318 318 320 322 325 328 328 328 329 330 329 328 327 326 325 325 326 328 330 331 331 331 330 326 322 320 321 323 323 320 318 316 316 317 321 324 328 329 329 328 326 325 323 321 319 318 317 316 314 313 311 310 310 310 309 308 308 309 310 311 312 311 310 310 309 309 307 306 305 304 303 302 301 299 297 296 295
305 310 313 315 317 318 318 316 313 313 317 320 322 324 325 326 328 329 329 328 327 326 325 326 326 327 328 329 331 333 332 328 324 321 321 324 323 321 321 320 317 316 317 320 323 325 324 323 323 323 321 319 317 315 313 313 312 310 309 309 309 308 308 307 306 306 306 308 309 308 309 310 309 309 308 306 305 304 303 301 300 298 297 296 295
312 313 314 317 316 315 315 313 311 312 316 317 317 320 324 326 328 328 328 326 326 326 326 326 326 327 328 331 333 334 332 328 325 323 322 323 322 321 322 322 319 317 318 320 322 324 323 322 321 321 320 319 317 314 311 310 308 307 307 307 306 306 306 305 304 304 304 304 304 304 305 307 307 306 305 305 304 304 302 301 299 298 297 297 294
318 315 313 313 313 313 314 313 311 312 314 316 319 322 324 324 326 327 327 326 325 326 326 326 327 328 329 331 333 333 331 329 327 325 324 323 323 322 322 322 320 319 320 322 323 324 324 323 321 320 318 318 317 314 311 309 307 306 305 303 303 304 304 304 304 303 302 300 299 299 300 301 302 303 303 302 302 301 299 297 297 296 295 294 292
326 323 318 317 317 317 314 312 316 321 325 329 331 328 325 326 328 329 328 327 326 325 325 326 327 328 329 330 331 331 330 329 327 325 324 323 323 323 323 323 322 322 323 324 324 324 323 322 320 318 316 315 313 311 309 308 307 305 303 302 302 303 304 304 304 302 299 297 295 294 293 295 297 299 298 298 298 297 295 293 292 291 291 291 290
328 334 340 340 336 331 325 325 332 337 338 339 337 332 330 332 332 328 326 326 325 325 325 326 327 328 328 329 328 328 328 327 325 324 324 323 323 324 324 324 324 324 324 324 324 323 321 320 318 315 313 311 308 306 306 306 306 305 304 303 303 303 304 304 303 301 299 297 294 292 291 292 293 294 295 295 295 295 294 293 290 287 286 287 287
327 340 349 348 343 346 352 355 352 346 342 339 335 332 333 333 329 324 323 324 324 325 325 325 326 327 327 326 326 326 326 326 325 324 324 324 324 324 324 323 323 324 324 323 323 322 321 318 316 313 311 309 307 306 305 305 305 305 304 303 303 303 303 303 302 301 300 298 295 293 292 291 291 291 292 293 294 295 294 292 289 285 283 282 282
339 347 351 349 351 1 5 2 356 350 343 338 333 330 330 328 325 324 325 325 327 329 329 327 327 327 325 325 325 326 326 326 324 324 324 325 325 324 324 323 324 324 324 324 323 322 321 318 315 312 310 308 306 306 306 306 305 305 304 303 303 302 302 302 301 301 299 296 294 294 292 290 290 289 290 291 293 293 291 289 286 283 281 279 278
335 343 347 348 352 356 354 350 346 342 337 333 331 329 327 328 329 330 331 331 333 334 333 331 330 329 328 327 328 328 327 326 325 324 324 325 325 325 325 325 325 325 325 324 324 322 320 318 316 313 311 309 307 306 306 305 305 305 304 303 302 302 302 301 300 299 297 295 294 293 292 290 289 288 288 289 290 290 288 286 284 281 279 277 276
8 3 355 341 333 337 339 339 339 336 328 322 323 326 328 331 333 333 332 331 332 332 330 329 329 329 328 327 327 326 326 325 324 323 324 324 324 325 326 325 325 325 325 324 323 322 321 319 317 314 311 309 308 307 306 305 305 305 304 303 303 303 302 301 299 296 295 294 293 291 290 289 287 287 287 287 288 288 287 286 284 280 278 277 276